Regional Weather Roundup
Issued by NWS

Home | Current Version | Previous Version | Graphics & Text | Print | Product List | Glossary On
Versions: 1 2 3 4 5 6 7 8 9 10 11 12 13 14 15 16 17 18 19 20 21 22 23 24 25 26 27 28 29 30 31 32 33 34 35 36 37 38 39 40 41 42 43 44 45 46 47 48 49 50
000
ASUS43 KBIS 302210
RWRND

NORTH DAKOTA REGIONAL WEATHER ROUNDUP
NATIONAL WEATHER SERVICE BISMARCK ND
500 PM CDT SAT MAY 30 2015

NOTE: "FAIR" INDICATES FEW OR NO CLOUDS BELOW 12,000 FEET WITH NO
SIGNIFICANT WEATHER AND/OR OBSTRUCTIONS TO VISIBILITY.


NDZ001>003-009>011-017-302300-
NORTHWEST NORTH DAKOTA

CITY           SKY/WX    TMP DP  RH WIND       PRES   REMARKS
WILLISTON      CLOUDY    62  36  37 SE17G28   30.17F
MINOT          SUNNY     57  27  31 E14G20    30.27F
MINOT AFB      SUNNY     57  28  33 E15G24    30.27F
$$

NDZ018>021-031>035-040>046-302300-
SOUTHWEST NORTH DAKOTA

CITY           SKY/WX    TMP DP  RH WIND       PRES   REMARKS
BISMARCK       SUNNY     58  34  40 E12G21    30.27F
DICKINSON      PTSUNNY   58  37  45 SE21      30.17F
GARRISON         N/A     58  31  35 E15       30.25F
HETTINGER ARPT SUNNY     60  39  45 SE21G29   30.19F
$$

NDZ004>008-012>016-024-026-027-054-302300-
NORTHEAST NORTH DAKOTA

CITY           SKY/WX    TMP DP  RH WIND       PRES   REMARKS
GRAND FORKS    SUNNY     56  28  34 VRB6      30.33F
GRND FRKS AFB  SUNNY     56  28  35 VRB7      30.33F
DEVILS LAKE    SUNNY     54  27  35 S9        30.31F
$$

NDZ022-023-025-028>030-036>039-047>053-302300-
SOUTHEAST NORTH DAKOTA

CITY           SKY/WX    TMP DP  RH WIND       PRES   REMARKS
FARGO          SUNNY     59  34  39 N10       30.30F
JAMESTOWN      SUNNY     55  29  36 SE8       30.30F
$$



USA.gov is the U.S. government's official web portal to all federal, state and local government web resources and services.